YACHTS Weather Reports


time (UTC)temp
F
wind
direction
speed
knots
gust
knots
rain 1hr
in
rain 24hr
in
rain mn
in
humidity
%
barometer
mb
20260904105526 54 0 0.0 0.0 0.10 1.49 0.20 96 1006.7
20260904105013 54 0 0.0 0.0 0.10 1.49 0.18 96 1006.8
20260904104500 53 0 0.0 0.0 0.07 1.49 0.14 96 1007.1
20260904103947 53 0 0.0 0.0 0.07 1.49 0.12 96 1007.0
20260904103434 54 0 0.0 0.0 0.07 1.49 0.11 96 1007.0
20260904102921 54 0 0.0 0.0 0.07 1.49 0.10 95 1007.0
20260904102408 53 0 0.0 0.0 0.07 1.49 0.09 96 1006.9
20260904101855 53 0 0.0 0.0 0.07 1.49 0.09 96 1006.9
20260904101342 53 0 0.0 0.0 0.07 1.49 0.09 95 1006.7
20260904100829 54 0 0.0 0.0 0.07 1.49 0.09 95 1006.9
20260904100316 53 0 0.0 0.0 0.07 1.49 0.09 95 1006.9
20260904095803 53 0 0.0 0.0 0.06 1.43 0.09 95 1006.9
20260904095250 54 0 0.0 0.0 0.06 1.43 0.08 95 1007.0
20260904094737 54 0 0.0 0.0 0.03 1.43 0.07 96 1007.0
20260904094224 53 0 0.0 0.0 0.03 1.43 0.05 95 1007.1
20260904093711 53 0 0.0 0.0 0.03 1.43 0.05 95 1007.2
20260904093158 53 0 0.0 0.0 0.03 1.43 0.04 95 1007.1
20260904092132 53 0 0.0 0.0 0.02 1.43 0.02 95 1007.2
20260904091619 53 0 0.0 0.0 0.02 1.43 0.02 95 1007.2
20260904091106 53 0 0.0 0.0 0.02 1.43 0.02 95 1007.2
20260904090553 53 0 0.0 0.0 0.02 1.43 0.02 95 1007.2
20260904090040 54 0 0.0 0.0 0.02 1.43 0.02 95 1007.3
20260904085527 54 0 0.0 0.0 0.02 1.41 0.02 95 1007.3
20260904085014 53 0 0.0 0.0 0.02 1.41 0.02 95 1007.3
20260904084501 53 0 0.0 0.0 0.02 1.41 0.02 95 1007.3
20260904083948 54 0 0.0 0.0 0.02 1.41 0.02 95 1007.2
20260904083435 53 0 0.0 0.0 0.00 1.41 0.02 95 1007.2
20260904082922 53 0 0.0 0.0 0.01 1.41 0.00 95 1007.2
20260904082409 53 0 0.0 0.0 0.01 1.41 0.00 95 1007.2
20260904081856 53 0 0.0 0.0 0.02 1.41 0.00 95 1007.2
20260904081343 53 0 0.0 0.0 0.02 1.41 0.00 95 1007.1
20260904080830 53 0 0.0 0.0 0.02 1.41 0.00 95 1007.0
20260904080317 53 0 0.0 0.0 0.02 1.41 0.00 95 1006.9
20260904075804 53 0 0.0 0.0 0.02 1.41 0.00 95 1007.0
20260904075251 54 0 0.0 0.0 0.02 1.41 1.41 95 1007.0
20260904074738 54 0 0.0 0.0 0.03 1.41 1.41 95 1007.0
20260904074225 54 0 0.0 0.0 0.03 1.41 1.41 95 1007.0
20260904073712 54 0 0.0 0.0 0.03 1.41 1.41 95 1007.0
20260904073158 54 0 0.0 0.0 0.03 1.41 1.41 95 1007.0
20260904072646 53 0 0.0 0.0 0.03 1.41 1.41 95 1007.0
20260904072133 54 0 0.0 0.0 0.03 1.40 1.40 95 1007.0
20260904071620 54 0 0.0 0.0 0.07 1.40 1.40 95 1007.0
20260904071106 54 0 0.0 0.0 0.07 1.39 1.39 95 1006.9
20260904070553 54 0 0.0 0.0 0.21 1.39 1.39 95 1006.8
20260904070040 54 0 0.0 0.0 0.21 1.39 1.39 95 1006.8
20260904065528 54 0 0.0 0.0 0.27 1.39 1.39 95 1006.8
20260904065014 54 0 0.0 0.0 0.27 1.39 1.39 95 1006.7
20260904064502 54 0 0.0 0.0 0.27 1.38 1.38 94 1006.6
20260904063948 54 0 0.0 5.2 0.27 1.38 1.38 94 1006.6
20260904063435 54 0 0.0 5.2 0.29 1.38 1.38 94 1006.7
20260904062922 54 100 1.7 5.2 0.28 1.38 1.38 94 1006.6
20260904062409 54 0 0.0 0.0 0.28 1.37 1.37 94 1006.7
20260904062102 54 0 0.0 0.0 0.24 1.36 1.37 94 1006.5
20260904061856 54 0 0.0 0.0 0.24 1.36 1.37 94 1006.5
20260904061343 54 0 0.0 0.0 0.24 1.35 1.35 94 1006.6
20260904060830 54 0 0.0 0.0 0.13 1.28 1.30 94 1006.7
20260904060317 54 0 0.0 0.0 0.13 1.22 1.23 94 1006.7
20260904055804 54 0 0.0 0.0 0.11 1.16 1.17 94 1006.7
20260904055251 54 0 0.0 0.0 0.11 1.13 1.13 94 1006.6
20260904054738 54 0 0.0 5.2 0.11 1.12 1.12 94 1006.4
20260904054226 54 0 0.0 5.2 0.11 1.11 1.11 94 1006.5
20260904053712 54 142 0.0 5.2 0.10 1.10 1.11 94 1006.6
20260904052133 54 0 0.0 0.0 0.10 1.09 1.09 94 1006.8
20260904051107 53 0 0.0 0.0 0.10 1.08 1.08 94 1007.0
20260904050554 54 0 0.0 0.0 0.09 1.07 1.07 94 1007.2
20260904045528 54 0 0.0 0.0 0.07 1.04 1.04 94 1007.2
20260904045016 53 0 0.0 0.0 0.07 1.01 1.02 94 1007.3
20260904043949 54 0 0.0 0.0 0.09 1.00 1.00 94 1007.1
20260904043436 54 0 0.0 0.0 0.10 0.99 0.99 94 1007.1
20260904042923 54 0 0.0 0.0 0.12 0.99 0.99 93 1007.1
20260904042410 54 0 0.0 3.5 0.12 0.99 0.99 93 1007.2
20260904041858 54 0 0.0 3.5 0.12 0.99 0.99 93 1007.2
20260904041344 54 92 0.0 3.5 0.12 0.99 0.99 93 1007.2
20260904040831 54 0 0.0 0.0 0.11 0.98 0.98 93 1007.2
20260904040318 54 0 0.0 0.0 0.11 0.97 0.97 93 1007.3
20260904035805 55 0 0.0 3.5 0.09 0.95 0.95 93 1007.4
20260904035408 54 232 0.0 3.5 0.09 0.95 0.95 93 1007.5
20260904035252 54 232 0.0 3.5 0.09 0.95 0.95 93 1007.5
20260904034739 55 0 0.0 3.5 0.07 0.94 0.94 93 1007.6
20260904034226 54 232 0.0 7.0 0.07 0.91 0.92 93 1007.5
20260904033713 54 184 0.0 7.0 0.07 0.90 0.90 93 1007.4
20260904033200 55 175 0.0 7.0 0.07 0.89 0.89 93 1007.4
20260904032647 55 233 0.9 7.0 0.06 0.88 0.88 93 1007.4
20260904032135 55 201 2.6 11.3 0.06 0.87 0.87 93 1007.4
20260904031622 55 242 0.0 11.3 0.05 0.86 0.87 93 1007.5
20260904031108 55 141 0.0 11.3 0.05 0.86 0.86 93 1007.4
20260904030555 55 236 0.9 12.2 0.06 0.86 0.86 93 1007.3
20260904025529 55 0 1.7 12.2 0.06 0.85 0.85 92 1007.2
20260904025016 55 191 3.5 12.2 0.06 0.85 0.85 92 1007.4
20260904024503 55 247 2.6 7.8 0.05 0.85 0.85 92 1007.4
20260904023950 55 0 0.0 0.0 0.05 0.84 0.84 92 1007.5
20260904023438 55 142 4.3 13.9 0.05 0.82 0.82 92 1007.5
20260904022924 56 302 3.5 13.9 0.06 0.81 0.81 92 1007.5
20260904022411 56 214 1.7 13.9 0.06 0.81 0.81 92 1007.4
20260904021858 56 254 0.0 11.3 0.06 0.81 0.81 92 1007.5
20260904021345 56 217 2.6 11.3 0.06 0.81 0.81 92 1007.6
20260904020832 56 211 4.3 11.3 0.05 0.81 0.81 92 1007.7
20260904020319 56 183 0.0 9.6 0.05 0.79 0.79 92 1007.6
20260904015806 56 159 2.6 8.7 0.07 0.79 0.79 92 1007.5
20260904014740 56 137 0.9 9.6 0.07 0.79 0.79 92 1007.5
20260904013715 55 189 4.3 9.6 0.06 0.79 0.79 92 1007.6
20260904013201 56 197 0.0 7.0 0.06 0.77 0.77 91 1007.6
20260904012648 55 140 1.7 13.9 0.07 0.76 0.76 91 1007.6
20260904012135 56 173 3.5 13.9 0.07 0.75 0.75 91 1007.6
20260904011622 56 173 4.3 13.9 0.07 0.75 0.75 91 1007.6
20260904011109 56 116 1.7 12.2 0.07 0.75 0.75 91 1007.6
20260904010556 55 235 0.9 10.4 0.06 0.75 0.75 91 1007.6
20260904010043 55 137 0.0 11.3 0.06 0.74 0.75 91 1007.7
20260904005530 56 158 0.0 11.3 0.04 0.73 0.73 91 1007.7
20260904005017 56 5 1.7 11.3 0.04 0.72 0.72 91 1007.6
20260904004504 57 165 2.6 8.7 0.04 0.72 0.72 91 1007.6
20260904003951 56 239 0.0 6.1 0.04 0.72 0.72 91 1007.7
20260904002925 57 232 3.5 9.6 0.01 0.71 0.71 90 1007.7
20260904001859 56 182 4.3 7.8 0.01 0.68 0.68 91 1007.7
20260904001346 56 170 5.2 16.5 0.01 0.68 0.68 91 1007.7
20260904000833 57 236 2.6 16.5 0.01 0.68 0.68 91 1007.8
20260904000320 58 180 2.6 16.5 0.01 0.68 0.68 91 1007.9
20260903235807 57 200 2.6 7.8 0.01 0.68 0.68 91 1007.8
20260903235254 57 242 0.9 11.3 0.01 0.68 0.68 91 1007.8
20260903234741 57 144 5.2 11.3 0.01 0.68 0.68 91 1007.9
20260903234228 57 184 2.6 11.3 0.01 0.68 0.68 91 1007.9
20260903233715 56 221 0.9 15.6 0.01 0.68 0.68 91 1007.9
20260903233202 56 204 3.5 15.6 0.01 0.68 0.68 91 1008.0
20260903232649 57 228 0.9 15.6 0.00 0.68 0.68 91 1008.0
20260903232136 57 124 4.3 13.0 0.00 0.68 0.68 91 1008.1
20260903231623 57 89 3.5 9.6 0.00 0.67 0.67 91 1008.2
20260903231110 57 161 5.2 9.6 0.00 0.67 0.67 91 1008.2
20260903230557 58 214 0.0 14.8 0.00 0.67 0.67 91 1008.2
20260903230044 58 238 3.5 14.8 0.00 0.67 0.67 91 1008.3
20260903225531 58 243 2.6 14.8 0.00 0.70 0.67 91 1008.3
20260903225018 58 253 3.5 11.3 0.00 0.70 0.67 91 1008.3
20260903224505 58 246 7.0 11.3 0.00 0.70 0.67 91 1008.4
20260903223952 58 257 4.3 13.9 0.00 0.70 0.67 92 1008.3
20260903222926 58 270 1.7 13.9 0.00 0.70 0.67 92 1008.3
20260903222413 57 158 2.6 10.4 0.00 0.70 0.67 92 1008.2
20260903221347 58 246 5.2 17.4 0.00 0.70 0.67 92 1008.4
20260903220321 57 228 6.1 10.4 0.00 0.70 0.67 92 1008.3
20260903215808 58 217 5.2 10.4 0.00 0.74 0.67 92 1008.3
20260903215255 58 127 2.6 9.6 0.00 0.74 0.67 92 1008.4
20260903214742 58 194 3.5 9.6 0.00 0.74 0.67 92 1008.4
20260903213716 58 170 0.0 19.1 0.01 0.74 0.67 93 1008.5
20260903213203 58 196 4.3 19.1 0.01 0.74 0.67 93 1008.4
20260903212650 58 137 7.0 19.1 0.02 0.74 0.67 93 1008.5
20260903212137 58 235 4.3 13.9 0.02 0.74 0.67 93 1008.5
20260903211624 58 240 0.0 10.4 0.06 0.74 0.67 93 1008.5
20260903205532 57 245 2.6 13.0 0.06 0.77 0.67 94 1008.4
20260903204506 56 296 1.7 9.6 0.06 0.77 0.67 93 1008.5
20260903203953 56 246 3.5 9.6 0.06 0.77 0.67 93 1008.5
20260903203440 56 131 2.6 11.3 0.05 0.77 0.66 94 1008.6
20260903202927 56 271 0.0 11.3 0.04 0.77 0.66 93 1008.8
20260903202414 57 194 1.7 11.3 0.04 0.77 0.65 93 1008.7
20260903201348 57 277 4.3 10.4 0.00 0.77 0.62 93 1008.8
20260903200322 58 130 2.6 13.9 0.02 0.77 0.61 94 1008.6
20260903194743 57 148 0.0 9.6 0.11 0.84 0.61 94 1008.9
20260903193717 55 240 0.0 7.8 0.16 0.84 0.61 94 1008.9
20260903192651 54 204 0.0 7.8 0.17 0.84 0.61 94 1008.9
20260903192138 54 222 0.0 6.1 0.17 0.84 0.61 94 1009.0
20260903190046 53 102 2.6 13.0 0.20 0.84 0.59 93 1009.5
20260903185021 53 154 0.9 4.3 0.16 0.74 0.54 93 1009.4
20260903183954 53 0 0.0 0.0 0.12 0.74 0.50 93 1009.4
20260903183441 53 0 0.0 0.0 0.08 0.74 0.49 93 1009.4
20260903182927 53 0 0.0 0.0 0.09 0.74 0.45 93 1009.4
20260903182415 53 0 0.0 8.7 0.09 0.74 0.44 93 1009.5
20260903181901 53 0 0.0 8.7 0.07 0.74 0.43 93 1009.4
20260903181349 53 172 0.0 8.7 0.07 0.74 0.42 93 1009.5
20260903180835 53 236 0.0 6.1 0.06 0.74 0.40 93 1009.4
20260903180322 53 154 0.0 6.1 0.06 0.74 0.39 93 1009.3
20260903175809 54 189 0.0 4.3 0.05 0.76 0.39 93 1009.2
20260903175257 54 245 0.0 9.6 0.05 0.76 0.38 92 1009.2
20260903174744 54 267 0.0 9.6 0.05 0.76 0.38 92 1009.2
20260903174231 53 204 0.9 9.6 0.05 0.76 0.38 92 1009.3
20260903173717 55 282 0.0 12.2 0.04 0.76 0.37 92 1009.3
20260903173205 54 165 3.5 12.2 0.04 0.76 0.37 92 1009.3
20260903172651 55 176 0.9 12.2 0.02 0.76 0.36 92 1009.2
20260903172139 55 0 0.0 10.4 0.02 0.76 0.36 92 1009.2
20260903171625 55 225 4.3 10.4 0.01 0.76 0.35 92 1009.1
20260903171112 56 85 3.5 13.9 0.01 0.76 0.34 92 1009.0
20260903170559 56 245 3.5 13.9 0.01 0.76 0.33 91 1009.2
20260903170047 56 148 2.6 13.9 0.01 0.76 0.33 92 1009.1
20260903165533 56 229 0.9 12.2 0.01 0.83 0.33 92 1009.1
20260903165020 57 261 6.1 12.2 0.01 0.83 0.33 92 1008.9
20260903164508 57 238 2.6 10.4 0.01 0.83 0.33 92 1008.7
20260903163954 57 155 3.5 12.2 0.01 0.83 0.33 92 1008.7
20260903163441 57 218 0.9 12.2 0.01 0.83 0.33 92 1008.6
20260903162929 57 247 1.7 12.2 0.01 0.83 0.33 92 1008.7
20260903162417 57 273 2.6 14.8 0.01 0.83 0.33 92 1008.8
20260903161902 57 144 3.5 14.8 0.01 0.83 0.33 93 1008.9
20260903161349 57 172 0.9 14.8 0.01 0.83 0.33 93 1009.0
20260903155810 56 266 0.9 15.6 0.00 0.90 0.32 93 1009.2
20260903155257 56 158 4.3 15.6 0.00 0.90 0.32 93 1009.2
20260903154745 57 291 3.5 7.8 0.00 0.90 0.32 93 1009.3
20260903154231 56 148 3.5 22.6 0.00 0.90 0.32 93 1009.1
20260903153718 57 249 4.3 22.6 0.00 0.90 0.32 93 1009.1
20260903153206 57 267 7.0 22.6 0.00 0.90 0.32 93 1009.0
20260903152723 57 240 2.6 16.5 0.00 0.90 0.32 93 1009.0
20260903152652 57 240 2.6 16.5 0.00 0.90 0.32 93 1009.0
20260903152139 55 205 1.7 11.3 0.00 0.90 0.32 94 1008.9
20260903151626 55 61 0.0 11.3 0.00 0.90 0.32 94 1009.0
20260903151113 55 267 0.0 11.3 0.00 0.90 0.32 93 1009.0
20260903150600 55 170 0.0 4.3 0.00 0.90 0.32 93 1009.0
20260903150047 55 130 0.0 14.8 0.00 0.90 0.32 93 1009.0
20260903145534 55 229 1.7 14.8 0.00 0.95 0.32 93 1009.0
20260903145021 55 238 1.7 7.8 0.00 0.95 0.32 93 1008.9
20260903144508 55 204 0.0 3.5 0.00 0.95 0.32 93 1008.8
20260903143955 56 204 4.3 17.4 0.00 0.95 0.32 93 1008.9
20260903143442 56 175 3.5 17.4 0.00 0.95 0.32 93 1008.9
20260903142929 56 162 7.0 17.4 0.00 0.95 0.32 93 1008.9
20260903142416 56 186 2.6 14.8 0.00 0.95 0.32 93 1008.8
20260903141904 56 175 3.5 14.8 0.00 0.95 0.32 93 1008.9
20260903141350 56 233 0.0 6.1 0.00 0.95 0.32 93 1008.9
20260903140837 56 184 0.9 22.6 0.00 0.95 0.32 93 1008.9
20260903140324 56 183 3.5 22.6 0.00 0.95 0.32 93 1008.8
20260903135811 56 162 4.3 22.6 0.00 0.96 0.32 94 1008.9
20260903135258 56 169 1.7 8.7 0.00 0.96 0.32 93 1008.7
20260903134746 56 275 0.0 16.5 0.00 0.96 0.32 94 1008.8
20260903134232 57 169 1.7 16.5 0.00 0.96 0.32 94 1008.8
20260903133719 56 175 0.9 16.5 0.00 0.96 0.32 94 1008.8
20260903133206 56 242 1.7 10.4 0.00 0.96 0.32 94 1008.8
20260903132653 57 210 1.7 10.4 0.01 0.96 0.32 94 1008.8
20260903132140 56 208 0.0 12.2 0.01 0.96 0.32 93 1008.8
20260903131627 57 175 2.6 12.2 0.01 0.96 0.32 93 1008.7
20260903131114 56 176 0.9 12.2 0.01 0.96 0.32 94 1008.8
20260903130601 55 182 2.6 8.7 0.01 0.96 0.32 94 1008.7
20260903130048 56 268 0.9 18.2 0.01 0.96 0.32 94 1008.9
20260903125536 56 238 0.0 18.2 0.06 0.95 0.32 94 1008.9
20260903125022 55 5 0.0 18.2 0.06 0.95 0.32 94 1008.9
20260903124509 56 32 2.6 13.0 0.08 0.95 0.32 94 1008.9
20260903123956 55 218 4.3 13.0 0.08 0.95 0.32 94 1008.8
20260903123443 55 173 0.0 12.2 0.13 0.95 0.32 94 1008.9
20260903122930 55 212 1.7 12.2 0.15 0.95 0.32 94 1008.8
20260903122417 56 211 3.5 10.4 0.15 0.95 0.31 94 1008.8
20260903121904 55 177 2.6 10.4 0.25 0.95 0.31 94 1008.9
20260903121351 55 119 0.0 10.4 0.25 0.95 0.31 94 1008.9
20260903120838 55 263 2.6 10.4 0.25 0.95 0.31 94 1009.0
20260903120325 55 270 4.3 10.4 0.25 0.95 0.31 94 1009.1
20260903115812 55 0 0.0 0.0 0.20 0.70 0.31 93 1009.3
20260903114746 54 197 1.7 11.3 0.19 0.70 0.26 93 1009.4
20260903114233 55 247 2.6 11.3 0.19 0.70 0.25 93 1009.5
20260903113720 56 284 0.0 7.8 0.18 0.70 0.22 93 1009.5
20260903113207 55 261 4.3 13.9 0.18 0.70 0.19 93 1009.6
20260903112654 55 162 2.6 13.9 0.15 0.70 0.18 93 1009.6
20260903111628 56 221 1.7 12.2 0.05 0.70 0.13 92 1009.4
20260903111115 56 246 4.3 17.4 0.05 0.70 0.07 92 1009.3